Regional Weather Roundup
Issued by NWS

Home | Current Version | Previous Version | Graphics & Text | Print | Product List | Glossary On
Versions: 1 2 3 4 5 6 7 8 9 10 11 12 13 14 15 16 17 18 19 20 21 22 23 24 25 26 27 28 29 30 31 32 33 34 35 36 37 38 39 40 41 42 43 44 45 46 47 48 49 50
000
ASUS44 KMEG 272010
RWRTN
TENNESSEE HOURLY STATE WEATHER ROUNDUP
NATIONAL WEATHER SERVICE MEMPHIS TN
300 PM CDT THU AUG 27 2015

TNZ002-004-019-021-049-052-054-088>092-272100-
WEST TENNESSEE

CITY           SKY/WX    TMP DP  RH WIND       PRES   REMARKS
MEMPHIS INTL   MOSUNNY   83  55  38 NE12      30.07F
NWS MEMPHIS      N/A     81 N/A N/A MISG        N/A
JACKSON        PTSUNNY   81  59  47 E8        30.09F
DYERSBURG      MOSUNNY  N/A N/A N/A MISG        N/A
UNION CITY     PTSUNNY   79  59  50 NE8       30.10S
PARIS          PTSUNNY   77  57  50 VRB5      30.12S
LEXINGTON      MOSUNNY   79  54  41 N10       30.09S
$$

TNZ008-025-027-028-033-062-065-066-272100-
NORTH MIDDLE TENNESSEE

CITY           SKY/WX    TMP DP  RH WIND       PRES   REMARKS
NASHVILLE      MOSUNNY   83  49  30 VRB5      30.09R
CLARKSVILLE    MOSUNNY   82  54  37 E7        30.10S
SMYRNA         SUNNY     87  55  33 NE12      30.08S
COOKEVILLE     SUNNY     82  63  51 VRB3      30.07F
CROSSVILLE     SUNNY     78  59  51 E5        30.10F
$$

TNZ061-075-076-078-094-096-097-272100-
SOUTH MIDDLE TENNESSEE

CITY           SKY/WX    TMP DP  RH WIND       PRES   REMARKS
FAYETTEVILLE     N/A     77  61  57 NE3       30.06R
TULLAHOMA      MOSUNNY   79  59  50 CALM      30.08S
WINCHESTER     MOSUNNY   82  63  51 NE6       30.06S
MCMINNVILLE    SUNNY     81  64  57 CALM      30.07F
COLUMBIA       SUNNY     82  57  42 N7        30.06F
SHELBYVILLE    SUNNY     82  63  51 E6        30.08S
$$

TNZ017-018-042-046-047-272100-
NORTHEAST TENNESSEE

CITY           SKY/WX    TMP DP  RH WIND       PRES   REMARKS
TRI CITIES     MOSUNNY   81  54  39 N3        30.08F
ELIZABETHTON   MOCLDY    79  55  44 NW6       30.09S
$$

TNZ012-013-036-069-073-074-272100-
CENTRAL EAST TENNESSEE

CITY           SKY/WX    TMP DP  RH WIND       PRES   REMARKS
KNOXVILLE      MOSUNNY   83  59  44 NE7       30.05F
OAK RIDGE      SUNNY     82  60  47 VRB5      30.07F
GATLINBURG     MOCLDY    81  55  41 VRB6      30.04F
MORRISTOWN     CLEAR     81  61  50 N6        30.07F
$$

TNZ083-085-099-272100-
SOUTHEAST TENNESSEE

CITY           SKY/WX    TMP DP  RH WIND       PRES   REMARKS
CHATTANOOGA    MOSUNNY   84  62  47 N8        30.03F
$$

SKY/WX REPORTED AS FAIR MEANS FEW OR NO CLOUDS BELOW
12 THOUSAND FEET.



USA.gov is the U.S. government's official web portal to all federal, state and local government web resources and services.